Starlink 36563

operational
NORAD ID: 67550 Int'l Des: 2026-014 Owner: SPXS Country: US Constellation: starlink
LEOCIRCULARRETROGRADE

About Starlink 36563

Description loading...

Live Position

Loading 3D Globe...

Upcoming Passes

Altitude History

Altitude vs Time

uPlot chart will show altitude changes over time

Two-Line Element Set

1 67550U 26014U 26066.15547008 .00294869 00000-0 19061-2 0 9993
2 67550 97.2831 310.9496 0000993 121.9120 238.2241 15.75240530 8174
Epoch: Mar 7, 2026 • Age: 16 hours

Current Status

Altitude 372.2 km
Velocity 7.68 km/s
Sub-Earth Point -82.45°S, 13.79°W
Launch Date Jan 22, 2026
Age 0.1 years
Type internet

Technical Details

Classification Payload
Mass 575.00 kg
Dry Mass 530.00 kg
Total Mass 575.00 kg
Length 0.30 m
Diameter 4.10 m
Span 29.00 m
Shape Box + pan
Manufacturer SPXS
Bus Type Starlink V2MO
Phase Status In Orbit
Owner/State SPXS/US

Large Constellations

Loading constellations...